Вернуться в каталог

FENGYUN 1C DEB

АктивенSSO
NORAD 29875·DEBRIS·🇨🇳 China

Запущен May 10, 1999 с Taiyuan Satellite Launch Center

Loading…

Ближайшие Пролёты (ближайшие 24 часа)

TLE

СвежийSource: Space-Track

Эпоха: Sep 14, 2026, 01:19 UTC

1 29875U 99025FV  26257.05555017  .00000036  00000-0  32194-4 0  9998
2 29875  98.3666 301.2173 0081645 336.5821  51.6876 14.24932485 22368

Отслеживайте FENGYUN 1C DEB в реальном времени с AllMySat

Download on the App Store